Regional Weather Roundup
Issued by NWS

Home | Current Version | Previous Version | Text Only | Print | Product List | Glossary On
Versions: 1 2 3 4 5 6 7 8 9 10 11 12 13 14 15 16 17 18 19 20 21 22 23 24 25 26 27 28 29 30 31 32 33 34 35 36 37 38 39 40 41 42 43 44 45 46 47 48 49 50
000
ASUS45 KPSR 230210
RWRAZ

ARIZONA REGIONAL HOURLY WEATHER ROUNDUP
NATIONAL WEATHER SERVICE PHOENIX AZ
700 PM MST SAT NOV 22 2014

NOTE: FAIR INDICATES FEW OR NO CLOUDS BELOW 12,000 FEET WITH NO
SIGNIFICANT WEATHER AND/OR OBSTRUCTIONS TO VISIBILITY.

AZZ001>003-036-230300-
NORTHWEST ARIZONA

CITY           SKY/WX    TMP DP  RH WIND       PRES   REMARKS
BULLHEAD CITY  CLEAR     68  28  22 SW5       29.89R
KINGMAN        CLEAR     48  20  32 E7        29.96S
$$

AZZ004>008-015-016-018-230300-
NORTH CENTRAL ARIZONA

CITY           SKY/WX    TMP DP  RH WIND       PRES   REMARKS
GRAND CANYON   CLEAR     43  15  32 SW10      30.00S
PRESCOTT       CLEAR     47  18  31 SW7       30.01S
FLAGSTAFF      CLEAR     41  15  35 W6        30.03S
PAYSON         CLEAR     46  21  36 CALM      30.05R
$$

AZZ009>014-017-230300-
NORTHEAST ARIZONA

CITY           SKY/WX    TMP DP  RH WIND       PRES   REMARKS
WINSLOW        CLEAR     49  20  31 SW10      29.95F
SAINT JOHNS    PTCLDY    49  13  23 SW20G25   29.98R
SHOW LOW       PTCLDY    41  16  36 S14       30.05S
$$

AZZ023-230300-
GREATER PHOENIX AREA

CITY           SKY/WX    TMP DP  RH WIND       PRES   REMARKS
PHOENIX        PTCLDY    65  33  30 E3        29.93F
BUCKEYE          N/A     57  28  33 E5        29.95R
GLENDALE       PTCLDY    63  36  36 CALM      29.95S
LUKE AFB       CLEAR     64  32  29 S6        29.93F
DEER VALLEY    CLEAR     58  28  32 CALM      29.94S
SCOTTSDALE     CLEAR     61  32  33 CALM      29.97S
MESA-FALCON    PTCLDY    59  30  33 CALM      29.94F
MESA-GATEWAY   PTCLDY    57  30  35 E5        29.97F
CHANDLER       PTCLDY    61  34  36 S6        29.95F
$$

AZZ027-028-230300-
SOUTHWEST MARICOPA COUNTY AND PINAL COUNTY

CITY           SKY/WX    TMP DP  RH WIND       PRES   REMARKS
CASA GRANDE    PTCLDY    55  27  33 CALM      29.96F
$$

AZZ503-504-507>509-230300-
SOUTHEAST ARIZONA

CITY           SKY/WX    TMP DP  RH WIND       PRES   REMARKS
TUCSON         CLEAR     62  27  26 NW6       30.02F
DAVIS-MONTHAN  PTCLDY    60  27  28 W5        30.00F
NOGALES        PTCLDY    51  28  41 CALM      30.05R
SIERRA VISTA   CLEAR     52  23  32 W9        30.07R
DOUGLAS        CLEAR     50  24  36 N9        30.04R
SAFFORD        CLEAR     57  22  25 NW8       29.97R
$$

AZZ020-021-025-026-031-230300-
SOUTHWEST ARIZONA

CITY           SKY/WX    TMP DP  RH WIND       PRES   REMARKS
YUMA           MOCLDY    69  35  28 S6        29.91S
$$

CAZ031-033-041-043-047-048-061-230300-
SOUTHERN CALIFORNIA

CITY           SKY/WX    TMP DP  RH WIND       PRES   REMARKS
DOWNTOWN L.A.  PTCLDY    64  53  67 CALM      30.00S
L.A. AIRPORT   MOCLDY    64  53  67 SW7       30.01S
SAN DIEGO      MOCLDY    65  57  75 S3        30.04F
BURBANK        PTCLDY    64  46  52 SE6       30.00F
ONTARIO        MOCLDY    64  50  60 W10       30.02R
RIVERSIDE      PTCLDY    64  49  57 W6        30.02R
PALM SPRINGS   PTCLDY    66  40  38 SE5       29.92R
EL CENTRO NAS  PTCLDY    73  39  29 SW15      29.88S
IMPERIAL       PTCLDY    72  40  31 SW9       29.88R
BLYTHE         PTCLDY    67  36  31 SE8       29.89F
NEEDLES        CLEAR     71  31  22 S12       29.88F
$$

NVZ020-UTZ003-230300-
SOUTHERN NEVADA-UTAH

CITY           SKY/WX    TMP DP  RH WIND       PRES   REMARKS
LAS VEGAS      CLEAR     64  30  27 S7        29.82S
SALT LAKE CITY CLOUDY    35  34  96 S6        29.85S WCI  30
$$

NMZ009-TXZ055-230300-
NEW MEXICO-WEST TEXAS

CITY           SKY/WX    TMP DP  RH WIND       PRES   REMARKS
ALBUQUERQUE    MOCLDY    51  15  23 NW6       29.91S
EL PASO        PTCLDY    61  19  19 W9        29.91R
$$


........................KEY........................
SKY/WX - SKY CONDITION/WEATHER
TMP    - TEMPERATURE IN FAHRENHEIT
DP     - DEW POINT IN FAHRENHEIT
RH     - RELATIVE HUMIDITY IN PERCENT
WIND   - DIRECTION AND SPEED IN MILES PER HOUR (MPH)
VRB    - VARIABLE WIND DIRECTION
PRES   - MEAN SEA LEVEL PRESSURE IN INCHES OF MERCURY
         F - FALLING PRESSURE   R - RISING PRESSURE
         S - STEADY PRESSURE
VSB    - VISIBILITY IN MILES
HX     - HEAT INDEX IN FAHRENHEIT
WCI    - WIND CHILL INDEX IN FAHRENHEIT
TC     - TEMPERATURE IN CELSIUS WHICH IS ALSO KNOWN AS
         TEMPERATURE IN CENTIGRADE
AFB    - AIR FORCE BASE
         LUKE AFB IS LUKE AIR FORCE BASE
         DAVIS-MONTHAN IS DAVIS-MONTHAN AIR FORCE BASE
NAS    - NAVAL AIR STATION
         EL CENTRO NAS IS EL CENTRO NAVAL AIR STATION
N/A    - NOT AVAILABLE



USA.gov is the U.S. government's official web portal to all federal, state and local government web resources and services.